DW2489 Weather Reports


Display with metric or nautical units.
time (UTC)temp
F
wind
direction
speed
MPH
gust
MPH
rain 1hr
in
rain 24hr
in
rain mn
in
humidity
%
barometer
mb
20260502220033 53 43 6.0 13.0 0.00 0.02 0.02 1010.6
20260502215531 53 264 3.0 13.0 0.00 0.02 0.02 1010.5
20260502215001 54 263 6.0 16.0 0.00 0.02 0.02 1010.6
20260502214532 54 250 7.0 16.0 0.00 0.02 0.02 1010.5
20260502214031 54 285 13.0 16.0 0.00 0.02 0.02 1010.4
20260502213502 54 248 3.0 15.0 0.00 0.02 0.02 1010.4
20260502213031 55 351 3.0 18.0 0.00 0.02 0.02 1010.3
20260502212546 54 251 7.0 18.0 0.00 0.02 0.02 1010.3
20260502212101 55 260 7.0 16.0 0.00 0.02 0.02 1010.3
20260502211531 55 235 9.0 18.0 0.00 0.02 0.02 1010.4
20260502211116 55 277 10.0 18.0 0.00 0.02 0.02 1010.2
20260502210602 55 253 4.0 16.0 0.00 0.02 0.02 1010.2
20260502210031 55 271 12.0 18.0 0.00 0.02 0.02 1010.2
20260502205531 56 226 4.0 18.0 0.00 0.02 0.02 1010.3
20260502205032 56 249 6.0 13.0 0.00 0.02 0.02 1010.2
20260502204532 56 264 13.0 13.0 0.00 0.02 0.02 1010.2
20260502204031 55 260 9.0 18.0 0.00 0.02 0.02 1010.1
20260502203532 55 0 3.0 18.0 0.00 0.02 0.02 1010.2
20260502203031 55 264 9.0 18.0 0.00 0.02 0.02 1010.2
20260502202531 55 254 10.0 18.0 0.00 0.02 0.02 1010.2
20260502202033 54 248 7.0 16.0 0.00 0.02 0.02 1010.1
20260502201546 54 280 10.0 19.0 0.00 0.02 0.02 1010.1
20260502201045 55 292 9.0 19.0 0.00 0.02 0.02 1010.2
20260502200532 56 276 7.0 15.0 0.00 0.02 0.02 1010.2
20260502200031 56 291 4.0 16.0 0.00 0.02 0.02 1010.1
20260502195532 56 297 9.0 16.0 0.00 0.02 0.02 1010.2
20260502195031 56 303 16.0 19.0 0.00 0.02 0.02 1010.2
20260502194531 56 218 6.0 19.0 0.00 0.02 0.02 1010.2
20260502194031 55 259 7.0 15.0 0.00 0.02 0.02 1010.3
20260502193531 55 287 4.0 13.0 0.00 0.02 0.02 1010.2
20260502193031 55 275 6.0 18.0 0.00 0.02 0.02 1010.3
20260502192531 55 263 2.0 18.0 0.00 0.02 0.02 1010.3
20260502192031 55 272 4.0 15.0 0.00 0.02 0.02 1010.2
20260502191531 56 192 7.0 15.0 0.00 0.02 0.02 1010.4
20260502191030 56 294 0.0 16.0 0.00 0.02 0.02 1010.4
20260502190530 57 245 0.0 16.0 0.00 0.02 0.02 1010.3
20260502190030 57 272 10.0 13.0 0.00 0.02 0.02 1010.4
20260502185530 57 181 3.0 12.0 0.00 0.02 0.02 1010.3
20260502185031 57 187 10.0 16.0 0.00 0.02 0.02 1010.3
20260502184530 57 269 4.0 16.0 0.00 0.02 0.02 1010.3
20260502184030 57 266 13.0 18.0 0.00 0.02 0.02 1010.3
20260502183530 57 172 3.0 18.0 0.00 0.02 0.02 1010.3
20260502183045 57 208 6.0 13.0 0.00 0.02 0.02 1010.2
20260502182530 57 239 7.0 15.0 0.00 0.02 0.02 1010.3
20260502182030 56 287 7.0 15.0 0.00 0.02 0.02 1010.3
20260502181530 56 233 2.0 13.0 0.00 0.02 0.02 1010.3
20260502181029 56 176 4.0 10.0 0.00 0.02 0.02 1010.3
20260502180529 56 232 6.0 12.0 0.00 0.02 0.02 1010.4
20260502164043 52 261 0.0 15.0 0.00 0.02 0.02 1010.9
20260502163528 53 305 3.0 15.0 0.00 0.02 0.02 1010.8
20260502163029 53 264 4.0 12.0 0.00 0.02 0.02 1010.8
20260502162529 53 279 0.0 13.0 0.00 0.02 0.02 1010.7
20260502162028 54 259 6.0 16.0 0.00 0.02 0.02 1010.8
20260502161528 54 288 10.0 16.0 0.00 0.02 0.02 1010.8
20260502161029 54 291 0.0 15.0 0.00 0.02 0.02 1010.6
20260502160528 55 227 9.0 16.0 0.00 0.02 0.02 1010.7
20260502152028 52 257 7.0 9.0 0.00 0.02 0.02 1011.0
20260502151528 51 230 7.0 9.0 0.00 0.02 0.02 1011.1
20260502151043 51 278 3.0 10.0 0.00 0.02 0.02 1011.1
20260502150528 51 263 4.0 10.0 0.00 0.02 0.02 1010.9
20260502130527 48 297 3.0 7.0 0.00 0.02 0.02 1011.4
20260502123556 46 232 4.0 10.0 0.00 0.02 0.02 1011.2
20260502123028 46 244 4.0 7.0 0.00 0.02 0.02 1011.3
20260502122526 46 183 3.0 7.0 0.00 0.02 0.02 1011.2
20260502122026 46 276 4.0 10.0 0.00 0.02 0.02 1011.1
20260502121528 46 258 3.0 12.0 0.00 0.02 0.02 1011.1
20260502121027 46 249 6.0 12.0 0.00 0.02 0.02 1011.1
20260502120611 46 251 3.0 9.0 0.00 0.02 0.02 1011.1
20260502115526 46 222 3.0 6.0 0.00 0.02 0.02 1011.2
20260502115111 45 270 2.0 9.0 0.00 0.02 0.02 1011.1
20260502114558 45 245 6.0 9.0 0.00 0.02 0.02 1011.1
20260502114026 45 292 4.0 7.0 0.00 0.02 0.02 1011.1
20260502113526 45 249 0.0 9.0 0.00 0.02 0.02 1011.0
20260502113026 45 237 6.0 9.0 0.00 0.02 0.02 1011.0
20260502112526 44 278 1.0 7.0 0.00 0.02 0.02 1011.0
20260502112026 44 249 7.0 10.0 0.00 0.02 0.02 1010.9
20260502111526 44 227 4.0 10.0 0.00 0.02 0.02 1010.9
20260502111027 44 259 0.0 11.0 0.00 0.02 0.02 1010.8
20260502110526 44 293 3.0 11.0 0.00 0.02 0.02 1010.8
20260502110025 45 277 4.0 10.0 0.00 0.02 0.02 1010.7
20260502105526 45 263 7.0 11.0 0.00 0.02 0.02 1010.7
20260502105026 45 274 9.0 11.0 0.00 0.02 0.02 1010.7
20260502104526 45 255 4.0 7.0 0.00 0.02 0.02 1010.5
20260502104026 45 223 3.0 6.0 0.00 0.02 0.02 1010.5
20260502103541 45 292 0.0 6.0 0.00 0.02 0.02 1010.4
20260502103025 45 228 0.0 7.0 0.00 0.02 0.02 1010.3
20260502102527 45 289 1.0 9.0 0.00 0.02 0.02 1010.3
20260502102027 45 267 3.0 9.0 0.00 0.02 0.02 1010.4
20260502101526 45 254 1.0 4.0 0.00 0.02 0.02 1010.4
20260502101025 45 254 3.0 4.0 0.00 0.02 0.02 1010.3
20260502100555 46 284 1.0 4.0 0.00 0.02 0.02 1010.2
20260502091525 46 259 3.0 4.0 0.00 0.02 0.02 1010.0
20260502091025 46 259 0.0 4.0 0.00 0.02 0.02 1009.7
20260502090555 46 259 0.0 4.0 0.00 0.02 0.02 1009.9
20260502071039 47 259 0.0 0.0 0.00 0.02 0.02 1010.3
20260502070524 47 259 0.0 1.0 0.00 0.02 0.02 1010.3
20260502070024 47 259 0.0 1.0 0.00 0.02 0.02 1010.4
20260502065524 47 259 0.0 0.0 0.00 0.02 0.02 1010.2
20260502065024 47 259 0.0 1.0 0.00 0.02 0.02 1010.2
20260502064541 47 259 0.0 1.0 0.00 0.02 0.02 1010.2
20260502064024 47 259 0.0 0.0 0.00 0.02 0.02 1010.2
20260502063525 47 259 0.0 0.0 0.00 0.02 0.02 1010.1
20260502063039 47 259 0.0 0.0 0.00 0.02 0.02 1010.1
20260502062524 47 259 0.0 0.0 0.00 0.02 0.02 1009.9
20260502062024 47 259 0.0 0.0 0.00 0.02 0.02 1010.0
20260502061554 47 259 0.0 0.0 0.00 0.02 0.02 1010.2
20260502061025 47 259 0.0 0.0 0.00 0.02 0.02 1010.3
20260502060524 47 259 0.0 0.0 0.00 0.02 0.02 1010.4
20260502060024 47 259 0.0 0.0 0.00 0.02 0.02 1010.5
20260502055524 47 259 0.0 0.0 0.00 0.02 0.02 1010.5
20260502055109 47 259 0.0 0.0 0.01 0.02 0.02 1010.5
20260502054609 47 259 0.0 0.0 0.02 0.02 0.02 1010.3
20260502054024 47 259 0.0 0.0 0.02 0.02 0.02 1010.4
20260502053524 47 259 0.0 0.0 0.02 0.02 0.02 1010.5
20260502053024 47 259 0.0 0.0 0.02 0.02 0.02 1010.6
20260502052524 47 259 0.0 0.0 0.02 0.02 0.02 1010.7
20260502052025 47 259 0.0 0.0 0.02 0.02 0.02 1010.8
20260502051524 47 259 0.0 0.0 0.02 0.02 0.02 1010.8
20260502051024 47 259 0.0 0.0 0.02 0.02 0.02 1010.7
20260502050523 47 259 0.0 0.0 0.02 0.02 0.02 1010.7
20260502050023 48 259 0.0 1.0 0.02 0.02 0.02 1010.6
20260502045524 48 259 0.0 4.0 0.02 0.02 0.02 1010.8
20260502045023 48 259 0.0 4.0 0.01 0.01 0.01 1010.8
20260502044523 48 259 0.0 3.0 0.00 0.00 0.00 1011.0
20260502044024 48 259 0.0 4.0 0.00 0.00 0.00 1011.0
20260502043523 48 259 1.0 4.0 0.00 0.00 0.00 1010.7
20260502043023 48 259 1.0 3.0 0.00 0.00 0.00 1010.7
20260502042525 48 259 0.0 0.0 0.00 0.00 0.00 1010.6
20260502042023 48 259 0.0 0.0 0.00 0.00 0.00 1010.6
20260502041554 48 259 0.0 0.0 0.00 0.00 0.00 1010.6
20260502041053 49 259 0.0 0.0 0.00 0.00 0.00 1010.7
20260502040523 49 259 0.0 1.0 0.00 0.00 0.00 1010.7
20260502040023 49 259 0.0 1.0 0.00 0.00 0.00 1010.8
20260502035523 49 259 0.0 3.0 0.00 0.00 0.00 1010.8
20260502035023 50 259 0.0 3.0 0.00 0.00 0.00 1010.8
20260502034523 50 259 0.0 3.0 0.00 0.00 0.00 1010.9
20260502034038 50 259 0.0 3.0 0.00 0.00 0.00 1010.7
20260502033524 50 259 0.0 3.0 0.00 0.00 0.00 1010.6
20260502033038 50 259 0.0 3.0 0.00 0.00 0.00 1010.7
20260502032538 50 259 0.0 1.0 0.00 0.00 0.00 1010.8
20260502032023 51 259 0.0 1.0 0.00 0.00 0.00 1010.7
20260502031522 51 259 0.0 3.0 0.00 0.00 0.00 1010.6
20260502031023 51 259 0.0 3.0 0.00 0.00 0.00 1010.6
20260502030523 52 259 0.0 1.0 0.00 0.00 0.00 1010.7
20260502030037 52 259 0.0 3.0 0.00 0.00 0.00 1010.7
20260502025523 52 259 0.0 3.0 0.00 0.00 0.00 1010.7
20260502025023 52 259 0.0 1.0 0.00 0.00 0.00 1010.6
20260502024523 52 259 0.0 4.0 0.00 0.00 0.00 1010.6
20260502024022 52 259 0.0 4.0 0.00 0.00 0.00 1010.5
20260502023537 52 259 0.0 4.0 0.00 0.00 0.00 1010.5
20260502023022 52 259 1.0 6.0 0.00 0.00 0.00 1010.5
20260502022523 52 259 0.0 6.0 0.00 0.00 0.00 1010.5
20260502022037 52 259 3.0 4.0 0.00 0.00 0.00 1010.5
20260502021523 53 259 0.0 1.0 0.00 0.00 0.00 1010.6
20260502021023 53 259 0.0 4.0 0.00 0.00 0.00 1010.6
20260502020552 53 259 0.0 4.0 0.00 0.00 0.00 1010.6
20260502020023 53 259 3.0 4.0 0.00 0.00 0.00 1010.6
20260502015538 53 259 0.0 4.0 0.00 0.00 0.00 1010.5
20260502015022 53 259 0.0 4.0 0.00 0.00 0.00 1010.4
20260502014523 53 259 0.0 7.0 0.00 0.00 0.00 1010.4
20260502014022 53 259 3.0 7.0 0.00 0.00 0.00 1010.4
20260502013521 53 284 0.0 3.0 0.00 0.00 0.00 1010.4
20260502013022 53 284 0.0 4.0 0.00 0.00 0.00 1010.4
20260502012521 53 284 1.0 4.0 0.00 0.00 0.00 1010.4
20260502012023 53 284 0.0 3.0 0.00 0.00 0.00 1010.4
20260502011521 53 284 0.0 3.0 0.00 0.00 0.00 1010.3
20260502011022 54 284 0.0 3.0 0.00 0.00 0.00 1010.2
20260502010552 54 284 1.0 3.0 0.00 0.00 0.00 1010.3
20260502010021 54 284 0.0 3.0 0.00 0.00 0.00 1010.2
20260502005521 54 284 0.0 3.0 0.00 0.00 0.00 1010.2
20260502005021 54 284 1.0 4.0 0.00 0.00 0.00 1010.1
20260502004521 54 284 0.0 4.0 0.00 0.00 0.00 1010.2
20260502004021 54 284 0.0 6.0 0.00 0.00 0.00 1010.1
20260502003536 55 284 0.0 6.0 0.00 0.00 0.00 1010.1
20260502003022 55 284 1.0 4.0 0.00 0.00 0.00 1010.0
20260502002521 55 284 0.0 4.0 0.00 0.00 0.00 1009.9
20260502002021 55 284 1.0 4.0 0.00 0.00 0.00 1010.0
20260502001521 55 294 0.0 7.0 0.00 0.00 0.00 1009.9
20260502001021 56 243 0.0 7.0 0.00 0.00 0.00 1009.9
20260502000521 56 268 6.0 7.0 0.00 0.00 0.00 1009.8
20260502000021 56 274 4.0 7.0 0.00 0.00 0.00 1009.9
20260501235520 56 273 4.0 9.0 0.00 0.00 0.00 1009.9
20260501235021 56 305 3.0 10.0 0.00 0.00 0.00 1009.9
20260501234535 56 270 6.0 10.0 0.00 0.00 0.00 1009.7
20260501234021 57 273 6.0 10.0 0.00 0.00 0.00 1009.6
20260501233521 57 255 4.0 10.0 0.00 0.00 0.00 1009.6
20260501233020 57 234 4.0 9.0 0.00 0.00 0.00 1009.6
20260501232536 57 277 6.0 7.0 0.00 0.00 0.00 1009.5
20260501232020 57 260 0.0 9.0 0.00 0.00 0.00 1009.5
20260501231521 57 267 1.0 9.0 0.00 0.00 0.00 1009.5
20260501231022 57 271 7.0 10.0 0.00 0.00 0.00 1009.5
20260501230520 57 300 3.0 10.0 0.00 0.00 0.00 1009.3
20260501230020 58 257 3.0 10.0 0.00 0.00 0.00 1009.3
20260501225520 58 260 6.0 10.0 0.00 0.00 0.00 1009.2
20260501225020 58 261 1.0 11.0 0.00 0.00 0.00 1009.2
20260501224520 58 253 6.0 11.0 0.00 0.00 0.00 1009.1
20260501224021 58 265 3.0 13.0 0.00 0.00 0.00 1009.1
20260501223519 58 281 3.0 13.0 0.00 0.00 0.00 1009.0
20260501223021 58 262 10.0 13.0 0.00 0.00 0.00 1009.1
20260501222520 59 271 7.0 13.0 0.00 0.00 0.00 1009.0
20260501222020 59 222 7.0 13.0 0.00 0.00 0.00 1008.9
20260501221534 59 225 4.0 11.0 0.00 0.00 0.00 1009.0
20260501221020 59 280 9.0 11.0 0.00 0.00 0.00 1008.9
20260501220519 59 260 0.0 13.0 0.00 0.00 0.00 1008.9